Total_Precipitation_Accumulation
0.05 0.09 0.32 0.41 0.39 0.39 0.39 0.41 0.44 0.44 0.50 0.57 0.57 0.59 0.60 0.55 0.51 0.50 0.48 0.44 0.43 0.49 0.60 0.69 0.73 0.74 0.70 0.61 0.51 0.46 0.44 0.42 0.40 0.40 0.45 0.50 0.49 0.44 0.40 0.39 0.40 0.39 0.54
0.06 0.09 0.26 0.31 0.34 0.39 0.42 0.43 0.39 0.36 0.44 0.50 0.51 0.54 0.58 0.57 0.52 0.55 0.54 0.52 0.51 0.56 0.62 0.69 0.67 0.66 0.62 0.62 0.55 0.44 0.41 0.37 0.31 0.27 0.27 0.32 0.42 0.44 0.42 0.40 0.40 0.45 0.48
0.05 0.08 0.20 0.27 0.32 0.38 0.40 0.38 0.34 0.31 0.37 0.42 0.45 0.50 0.59 0.59 0.56 0.55 0.53 0.52 0.54 0.62 0.65 0.67 0.65 0.62 0.56 0.57 0.61 0.50 0.44 0.36 0.28 0.24 0.20 0.23 0.38 0.50 0.47 0.44 0.42 0.50 0.50
0.03 0.06 0.13 0.25 0.31 0.37 0.38 0.36 0.35 0.34 0.35 0.40 0.44 0.48 0.53 0.55 0.56 0.56 0.53 0.54 0.58 0.65 0.70 0.70 0.69 0.65 0.59 0.55 0.55 0.50 0.53 0.42 0.28 0.21 0.15 0.21 0.38 0.56 0.56 0.53 0.50 0.53 0.54
0.03 0.05 0.14 0.25 0.32 0.37 0.40 0.39 0.38 0.37 0.39 0.40 0.43 0.48 0.55 0.55 0.55 0.51 0.48 0.49 0.54 0.64 0.71 0.70 0.64 0.61 0.60 0.58 0.52 0.51 0.54 0.45 0.29 0.17 0.13 0.19 0.32 0.58 0.58 0.58 0.56 0.53 0.52
0.04 0.06 0.15 0.27 0.34 0.39 0.42 0.42 0.42 0.42 0.45 0.47 0.49 0.51 0.58 0.60 0.59 0.54 0.48 0.46 0.46 0.52 0.60 0.60 0.58 0.57 0.58 0.53 0.47 0.51 0.58 0.50 0.25 0.14 0.18 0.23 0.30 0.58 0.68 0.66 0.60 0.57 0.56
0.04 0.08 0.18 0.31 0.40 0.44 0.45 0.45 0.47 0.48 0.51 0.54 0.56 0.58 0.61 0.61 0.60 0.58 0.56 0.51 0.48 0.46 0.50 0.53 0.53 0.54 0.55 0.51 0.48 0.56 0.63 0.47 0.20 0.20 0.22 0.25 0.33 0.71 0.96 0.87 0.69 0.62 0.60
0.05 0.10 0.21 0.38 0.46 0.51 0.54 0.53 0.54 0.56 0.58 0.60 0.62 0.65 0.64 0.61 0.59 0.58 0.57 0.52 0.48 0.44 0.42 0.44 0.47 0.48 0.49 0.49 0.50 0.53 0.56 0.35 0.17 0.17 0.21 0.23 0.37 0.81 1.05 1.01 0.85 0.72 0.65
0.09 0.14 0.24 0.38 0.48 0.58 0.62 0.59 0.59 0.61 0.62 0.66 0.70 0.70 0.67 0.62 0.62 0.63 0.59 0.53 0.50 0.48 0.43 0.38 0.38 0.40 0.39 0.41 0.45 0.44 0.40 0.26 0.17 0.21 0.21 0.25 0.38 0.82 1.05 1.10 1.00 0.85 0.72
0.15 0.20 0.28 0.40 0.47 0.55 0.63 0.66 0.64 0.66 0.68 0.72 0.75 0.73 0.68 0.67 0.66 0.63 0.57 0.51 0.52 0.51 0.46 0.42 0.39 0.36 0.34 0.33 0.32 0.30 0.24 0.20 0.15 0.21 0.31 0.29 0.35 0.75 1.03 1.08 1.03 0.96 0.82
0.23 0.27 0.35 0.45 0.53 0.60 0.65 0.69 0.78 0.81 0.84 0.84 0.80 0.77 0.76 0.73 0.68 0.60 0.49 0.48 0.53 0.53 0.47 0.44 0.43 0.39 0.36 0.30 0.26 0.22 0.18 0.14 0.15 0.25 0.31 0.34 0.50 0.89 1.14 1.13 1.10 1.03 0.92
0.23 0.29 0.37 0.48 0.56 0.67 0.71 0.80 0.91 0.91 0.90 0.86 0.76 0.74 0.77 0.70 0.65 0.59 0.52 0.51 0.55 0.56 0.53 0.50 0.48 0.47 0.42 0.33 0.32 0.28 0.18 0.14 0.15 0.17 0.21 0.28 0.53 0.98 1.23 1.22 1.23 1.16 1.05
0.19 0.27 0.37 0.51 0.63 0.70 0.73 0.83 0.90 0.90 0.89 0.89 0.82 0.78 0.75 0.77 0.73 0.68 0.62 0.63 0.62 0.59 0.58 0.57 0.59 0.54 0.49 0.45 0.45 0.38 0.28 0.24 0.20 0.16 0.16 0.22 0.38 0.73 1.09 1.24 1.29 1.32 1.29
0.24 0.31 0.41 0.57 0.68 0.73 0.72 0.80 0.86 0.85 0.80 0.81 0.79 0.80 0.80 0.81 0.77 0.75 0.70 0.71 0.72 0.69 0.65 0.62 0.59 0.55 0.52 0.47 0.46 0.43 0.41 0.39 0.30 0.23 0.17 0.19 0.25 0.37 0.65 0.96 1.22 1.36 1.44
0.28 0.36 0.49 0.61 0.72 0.80 0.83 0.86 0.87 0.82 0.76 0.76 0.79 0.80 0.75 0.70 0.65 0.60 0.61 0.60 0.55 0.53 0.53 0.54 0.55 0.53 0.51 0.47 0.42 0.39 0.39 0.41 0.37 0.31 0.27 0.25 0.24 0.27 0.40 0.61 0.91 1.23 1.45
0.32 0.40 0.53 0.66 0.77 0.87 0.85 0.88 0.88 0.85 0.82 0.82 0.78 0.73 0.70 0.65 0.61 0.56 0.52 0.52 0.48 0.43 0.40 0.41 0.41 0.42 0.42 0.40 0.35 0.31 0.32 0.36 0.36 0.34 0.34 0.34 0.29 0.28 0.32 0.45 0.67 0.98 1.33
0.35 0.46 0.57 0.70 0.87 0.95 0.92 0.94 0.95 0.92 0.88 0.84 0.80 0.75 0.71 0.66 0.63 0.61 0.56 0.52 0.49 0.47 0.46 0.44 0.44 0.43 0.40 0.37 0.33 0.29 0.28 0.28 0.32 0.34 0.36 0.37 0.38 0.36 0.35 0.41 0.54 0.78 1.17
0.42 0.54 0.64 0.77 0.93 1.02 1.04 1.03 1.00 0.97 0.96 0.91 0.84 0.80 0.76 0.70 0.65 0.63 0.60 0.56 0.56 0.56 0.57 0.54 0.49 0.46 0.43 0.39 0.36 0.33 0.31 0.28 0.26 0.29 0.34 0.35 0.36 0.36 0.35 0.38 0.50 0.71 0.99
0.44 0.56 0.67 0.78 0.94 1.07 1.14 1.13 1.13 1.04 1.02 1.00 0.94 0.86 0.81 0.74 0.68 0.64 0.62 0.63 0.65 0.69 0.67 0.63 0.58 0.51 0.47 0.43 0.41 0.39 0.35 0.32 0.30 0.30 0.31 0.35 0.37 0.35 0.35 0.37 0.43 0.55 0.76
0.45 0.56 0.69 0.83 1.00 1.13 1.29 1.32 1.31 1.23 1.10 1.06 1.01 0.89 0.80 0.78 0.73 0.69 0.67 0.67 0.71 0.74 0.73 0.69 0.63 0.57 0.54 0.52 0.52 0.49 0.42 0.36 0.33 0.31 0.30 0.33 0.35 0.36 0.36 0.40 0.44 0.43 0.49
0.51 0.57 0.64 0.80 0.98 1.14 1.27 1.35 1.31 1.26 1.13 1.06 1.02 0.96 0.86 0.82 0.83 0.79 0.71 0.71 0.70 0.71 0.69 0.68 0.68 0.67 0.63 0.62 0.66 0.65 0.57 0.46 0.38 0.33 0.33 0.34 0.35 0.40 0.47 0.52 0.58 0.55 0.48
0.53 0.56 0.62 0.75 0.89 1.05 1.19 1.24 1.30 1.26 1.19 1.12 1.07 1.02 0.93 0.83 0.88 0.92 0.82 0.75 0.73 0.70 0.72 0.74 0.72 0.72 0.73 0.68 0.70 0.75 0.68 0.60 0.48 0.36 0.33 0.34 0.38 0.45 0.57 0.62 0.69 0.70 0.63
0.52 0.57 0.64 0.71 0.82 0.95 1.18 1.40 1.52 1.56 1.44 1.29 1.17 1.05 0.93 0.86 0.82 0.91 0.94 0.84 0.78 0.73 0.70 0.68 0.69 0.68 0.71 0.66 0.63 0.83 0.89 0.65 0.43 0.33 0.30 0.30 0.31 0.33 0.38 0.45 0.53 0.59 0.66
0.50 0.61 0.70 0.71 0.80 0.94 1.13 1.39 1.54 1.59 1.45 1.20 1.06 1.03 0.97 0.91 0.86 0.83 0.91 0.90 0.86 0.82 0.75 0.69 0.67 0.67 0.73 0.75 0.66 0.62 0.66 0.65 0.64 0.45 0.29 0.27 0.27 0.27 0.27 0.29 0.34 0.40 0.51
0.51 0.62 0.74 0.80 0.87 0.99 1.09 1.28 1.51 1.60 1.50 1.35 1.22 1.10 1.02 0.99 0.94 0.86 0.84 0.87 0.86 0.84 0.83 0.77 0.71 0.72 0.75 0.78 0.75 0.65 0.58 0.51 0.53 0.62 0.43 0.31 0.30 0.27 0.27 0.27 0.29 0.31 0.35
0.48 0.57 0.74 0.86 0.90 1.03 1.09 1.21 1.36 1.54 1.62 1.56 1.44 1.30 1.14 1.07 1.01 0.98 0.86 0.85 0.86 0.85 0.85 0.82 0.76 0.74 0.76 0.76 0.74 0.71 0.72 0.69 0.56 0.60 0.55 0.39 0.35 0.32 0.33 0.33 0.33 0.32 0.34